Hourly Data Report for May 29, 2012

All times are specified in Local Standard Time (LST). Add 1 hour to adjust for Daylight Saving Time where and when it is observed.

GANDER INTL A
NEWFOUNDLAND

48°56'13.000" N
54°34'05.000" W
151.20 m
8401703
71803
YQX

Download Data

Hourly Data (May 2012)
Hourly Data Report for May 29, 2012
Temp Definition
°C
Dew Point Temp Definition
°C
Rel Hum Definition
%
Wind Dir Definition
10's deg

Wind Spd Definition
km/h
Visibility Definition
km
Stn Press Definition
kPa
Hmdx Definition


Wind Chill Definition


Weather Definition


TIME
00:30 Legend Double Dagger -0.3 -1.4 92 33 10 10.0 99.69   -4 LegendNANA
01:30 Legend Double Dagger 0.0 -1.6 89 33 12 10.0 99.69   -4 Snow Showers
02:30 Legend Double Dagger -0.1 -2.0 87 34 10 10.0 99.69   -3 Snow Showers
03:30 Legend Double Dagger 0.0 -2.4 84 35 16 10.0 99.68   -5 Snow Showers
04:30 Legend Double Dagger -0.3 -1.9 89 33 11 10.0 99.69   -4 Snow Showers
05:30 Legend Double Dagger -0.3 -1.4 92 34 13 6.4 99.70   -4 Snow Showers
06:30 Legend Double Dagger 0.0 -0.9 94 31 15 10.0 99.70   -4 Snow Showers
07:30 Legend Double Dagger 0.4 -0.5 94 31 16 10.0 99.68     LegendNANA
08:30 Legend Double Dagger 2.3 -0.5 82 34 30 10.0 99.65     Mostly Cloudy
09:30 Legend Double Dagger 1.8 -2.7 72 33 37 10.0 99.67     Snow Showers
10:30 Legend Double Dagger 3.0 -3.8 61 33 42 10.0 99.63     LegendNANA
11:30 Legend Double Dagger 3.0 -3.4 63 34 43 10.0 99.65     Mostly Cloudy
12:30 Legend Double Dagger 3.5 -3.3 61 35 36 10.0 99.62     LegendNANA
13:30 Legend Double Dagger 4.1 -3.4 58 33 41 10.0 99.60     LegendNANA
14:30 Legend Double Dagger 4.9 -3.9 53 34 52 10.0 99.61     Mostly Cloudy
15:30 Legend Double Dagger 4.4 -3.1 58 34 36 10.0 99.56     LegendNANA
16:30 Legend Double Dagger 5.5 -2.3 57 34 41 10.0 99.55     LegendNANA
17:30 Legend Double Dagger 5.5 -2.1 58 33 45 10.0 99.59     Mostly Cloudy
18:30 Legend Double Dagger 4.7 -1.5 64 34 28 10.0 99.59     LegendNANA
19:30 Legend Double Dagger 3.4 -1.0 73 33 33 10.0 99.59     LegendNANA
20:30 Legend Double Dagger 2.5 -0.8 79 33 24 10.0 99.61     Mostly Cloudy
21:30 Legend Double Dagger 2.5 -0.4 81 34 35 10.0 99.57     LegendNANA
22:30 Legend Double Dagger 3.0 0.2 82 35 30 10.0 99.51     LegendNANA
23:30 Legend Double Dagger 3.0 0.7 85 34 31 10.0 99.48     Cloudy

Notes on Data Quality.

Legend

  • E = Estimated
  • M = Missing
  • NA = Not Available
  • ‡ = Partner data that is not subject to review by the National Climate Archives
Date modified: